{"data":{"norad_id":67249,"epoch":"2026-05-25T03:49:18.418080Z","epoch_age_seconds":57169,"freshness":"FRESH","line1":"1 67249U 25313B   26145.15924095  .00003128  00000+0  23908-3 0  9993","line2":"2 67249  97.5123 212.1992 0294221  50.4037 312.2757 14.74130081 21742","mean_motion":14.74130081,"eccentricity":0.0294221,"inclination_deg":97.5123,"raan_deg":212.1992,"arg_perigee_deg":50.4037,"mean_anomaly_deg":312.2757,"bstar":0.00023908,"rev_number":2174,"period_min":97.684730714073,"perigee_km":441.19289496223,"apogee_km":854.6352494658,"semimajor_km":7026.051072214,"source":"CELESTRAK","updated_at":"2026-05-25T13:38:06.842297Z"}}